User: anonymous   Login
Location: Borotín
(49.5055°N, 14.6142°E)
Time: 09:16:49
(UTC+00:00)
Language:

Cosmos 1455 - Orbit

View from above orbital plane
View from above orbital plane
View from above satellite
View from above satellite

Ground track
Ground track

The orbit data is extracted from the following two-line orbital elements,

1 14032U 83037A   22222.59733348  .00004255  00000-0  18955-3 0  9990
2 14032  82.5139  26.7391 0015365 210.2760 149.7590 15.21069809146463
Epoch (UTC): 10 August 2022 14:20:09
Eccentricity: 0.0015365
inclination: 82.5139°
perigee height: 492 km
apogee height: 513 km
right ascension of ascending node: 26.7391°
argument of perigee: 210.2760°
revolutions per day: 15.21069809
mean anomaly at epoch: 149.7590°
orbit number at epoch: 14646

The dashed part of the orbit path shows where the satellite is in the earth's shadow,  

DLR